Tracking 20370 objects as of 20-Feb-2020
HD Live streaming from Space Station
objects crossing your sky now
Track the group of recently launched Starlink satellites

COSMOS 1288

Track COSMOS 1288 now!
10-day predictions
COSMOS 1288 is classified as:


NORAD ID: 12637
Int'l Code: 1981-074B
Perigee: 1,471.9 km
Apogee: 1,499.2 km
Inclination: 74.0 °
Period: 115.5 minutes
Semi major axis: 7856 km
RCS: 0.6864 m2 (medium)
Launch date: August 6, 1981
Source: Commonwealth of Independent States (former USSR) (CIS)
Launch site: PLESETSK MISSILE AND SPACE COMPLEX (PKMTR)
aabbcc
Your satellite tracking list
Your tracking list is empty




NASA's NSSDC Master Catalog

Two Line Element Set (TLE):
1 12637U 81074B   20050.37317443 -.00000001 +00000-0 +10255-3 0  9996
2 12637 074.0315 278.3878 0017365 126.5477 046.5268 12.46672860753770
Source of the keplerian elements: AFSPC